STARLINK-34998, 65474

Orbit data source: Space-Track

STARLINK-34998, 65474 is a payload satellite owned by SpaceX/Seattle (US) in LEO that was launched on Wed, 03 Sep 2025 UTC via an FALCON 9 launch vehicle from the Air Force Eastern Test Range (AFETR). Payload-class satellites include a variety of spacecraft equipped with specific instruments for various scientific and technological missions. These include communications satellites like Starlink; space stations such as the ISS; scientific satellites like the Hubble; Earth observation satellites from companies like Planet Labs, Umbra, and HawkEye 360; GPS; miniature CubeSats for education and research; and military/defense satellites.

Loading next visibility...
Identifier
65474, 2025-195S
Orbit
LEO
Country
Flag of USUS
Related business
Manufacturer
SpaceX/Seattle
Mission
Operational spacecraft
Bus & Motor
STARLINK V2MO, Unknown motor
Mass
575 kg wet, ~530 kg dry
Launch date (UTC)
2025-09-03 (2 weeks ago)
Launch vehicle
FALCON 9
Launch site
Air Force Eastern Test Range (AFETR)
Object type
Payload
Rocket body
Debris
Shape & HBR
Unknown
Radar Cross Section
RCS unknown

Expand to show TLE details & history
Last TLE update: 18 hours ago

TLE from 18 hours ago
0 STARLINK-34998
1 65474U 25195S   25259.58337963 -.01618485  00000-0 -13434-1 0  9996
2 65474  53.1593 352.4451 0001043  75.3954 123.8981 15.72388338  2450
Epoch: 2025-09-16T14:00Z
TLE epoch observation values (Epoch: 2025-09-16T14:00:04Z)
Latitude
-15.50763°
Longitude
-21.41338°
Altitude
356.655 km
Speed
7.695 km/s
True Right ascension
12h 17m 29s
True Declination
-15° 24' 50"
Sunlit
Object was in daylight at epoch
Visualization orbit readout
Latitude
Unknown
Longitude
Unknown
Altitude
Unknown
Speed
Unknown
Apparent Right ascension
Unknown
Apparent Declination
Unknown
Sunlit
N/A
Visualization observer readout
Local Sidereal Time
00:43:47
Azimuth
Unknown
Elevation
Unknown
Doppler factor
Unknown
Orbital elements
Apogee altitude
353.036 km
Perigee altitude
351.632 km
Semi-major axis
6,730.471 km
Eccentricity
0.0001
Inclination
53.1593°
RAAN
352.4451°
Arg. of periapsis
75.3954°
True anomaly
123.90802°
Mean anomaly
123.8981°
Eccentric anomaly
123.90306°
Mean motion
3.93075 °/min
Orbital period
91.59 mins
BSTAR
-0.013434
Loading maneuver chart data...
Computing Atmospheric mass density...
Loading historical data...
Loading historical data...
Loading historical data...
Loading historical data...
Loading historical data...
Loading historical data...
Loading historical data...

Documentation

Showing up to 5 results
|